Regional Weather Roundup
Issued by NWS

Home | Current Version | Previous Version | Graphics & Text | Print | Product List | Glossary On
Versions: 1 2 3 4 5 6 7 8 9 10 11 12 13 14 15 16 17 18 19 20 21 22 23 24 25 26 27 28 29 30 31 32 33 34 35 36 37 38 39 40 41 42 43 44 45 46 47 48 49 50
402
ASUS43 KDTX 120610
RWRMI
MICHIGAN HOURLY REGIONAL WEATHER ROUNDUP
NATIONAL WEATHER SERVICE DETROIT/PONTIAC MI
ISSUED BY NATIONAL WEATHER SERVICE GRAND RAPIDS MI
100 AM EST TUE DEC 12 2017

NOTE: "FAIR" INDICATES FEW OR NO CLOUDS BELOW 12,000 FEET WITH NO
SIGNIFICANT WEATHER AND/OR OBSTRUCTION TO VISIBILITY.

MIZ047>049-052>055-059>063-066>070-074>076-081>083-120700-
SOUTHEAST LOWER MICHIGAN

CITY           SKY/WX    TMP DP  RH WIND       PRES   REMARKS
ADRIAN         CLOUDY    30  27  88 NW9       29.67S WCI  22
6HR MIN TEMP:  28; 6HR MAX TEMP:  30; 6HR PCP:  0.04;

ALMA           LGT SNOW  28  27  95 NW12G20   29.71R WCI  18
6HR MIN TEMP:  28; 6HR MAX TEMP:  30;

ANN ARBOR      CLOUDY    29  27  92 W9        29.64F FOG     WCI  20
BAD AXE        LGT SNOW  27  26  96 W8        29.63F WCI  19
6HR MIN TEMP:  24; 6HR MAX TEMP:  27;

DETROIT CITY   CLOUDY    30  28  92 NW5       29.63F FOG     WCI  25
6HR MIN TEMP:  29; 6HR MAX TEMP:  31; 6HR PCP:  0.08;

DETROIT        LGT SNOW  31  28  89 W7        29.64F FOG     WCI  24
6HR MIN TEMP:  31; 6HR MAX TEMP:  31; 6HR PCP:  0.14;

FLINT          LGT SNOW  29  27  92 NW14      29.66F FOG     WCI  18
6HR MIN TEMP:  28; 6HR MAX TEMP:  29; 6HR PCP:  0.01;

GROSSE ILE     LGT SNOW  31  30  96 CALM      29.63F
6HR MIN TEMP:  31; 6HR MAX TEMP:  34; 6HR PCP:  0.06;

HILLSDALE      CLOUDY    30  28  93 NW16G23   29.66R FOG     WCI  19
HOWELL         MIX PCPN  30  30  99 NW14      29.65S WCI  20
6HR MIN TEMP:  28; 6HR MAX TEMP:  30; 6HR PCP:  0.02;


CITY           SKY/WX    TMP DP  RH WIND       PRES   REMARKS
JACKSON        CLOUDY    31  27  85 W14G22    29.67R FOG     WCI  21
6HR MIN TEMP:  29; 6HR MAX TEMP:  31; 6HR PCP:  0.16;

LANSING        FLURRIES  30  27  88 NW16G22   29.70R WCI  19
6HR MIN TEMP:  29; 6HR MAX TEMP:  30; 6HR PCP:  0.01;

MASON          CLOUDY    31  27  83 NW15G21   29.68R WCI  20
6HR MIN TEMP:  29; 6HR MAX TEMP:  31;

MONROE         LGT SNOW  30  28  94 W3        29.64S
6HR MIN TEMP:  30; 6HR MAX TEMP:  32; 6HR PCP:  0.03;

MT. CLEMENS    CLOUDY    29  29 100 NW5       29.61F WCI  24
6HR MIN TEMP:  29; 6HR MAX TEMP:  30; 6HR PCP:  0.09;

PONTIAC        FRZ RAIN  30  29  96 NW13      29.62F FOG     WCI  20
6HR MIN TEMP:  27; 6HR MAX TEMP:  30; 6HR PCP: TRACE;

PORT HOPE        N/A     28  25  88 W8        29.60F WCI  20
6HR MIN TEMP:  25; 6HR MAX TEMP:  28; 6HR PCP:  0.04;

PORT HURON     CLOUDY    28  27  93 CALM      29.63F FOG
TRI CITIES     LGT SNOW  28  26  92 NW17      29.68F FOG     WCI  16
6HR MIN TEMP:  27; 6HR MAX TEMP:  29; 6HR PCP:  0.01;

YPSILANTI      CLOUDY    32  29  88 NW10      29.64F FOG     WCI  24
6HR MIN TEMP:  30; 6HR MAX TEMP:  32; 6HR PCP: TRACE;

$$
MIZ043>046-050>051-056>058-064>065-071>073-077>080-120700-
SOUTHWEST LOWER MICHIGAN

CITY           SKY/WX    TMP DP  RH WIND       PRES   REMARKS
BATTLE CREEK   CLOUDY    30  26  85 N18G28    29.72R WCI  18
6HR MIN TEMP:  29; 6HR MAX TEMP:  31; 6HR PCP:  0.08;

BENTON HARBOR  CLOUDY    34  24  67 NW13G28   29.80R WCI  25
6HR MIN TEMP:  30; 6HR MAX TEMP:  37; 6HR PCP:  0.08;

BIG RAPIDS     FLURRIES  24  18  79 N15G30    29.74S WCI  11
6HR MIN TEMP:  24; 6HR MAX TEMP:  28;

COLDWATER      CLOUDY    32  30  92 NW12G22   29.71R WCI  23
6HR MIN TEMP:  30; 6HR MAX TEMP:  32;

HOLLAND        CLOUDY    31  21  66 N14G28    29.80R WCI  21
6HR MIN TEMP:  31; 6HR MAX TEMP:  34; 6HR PCP:  0.01;

GRAND RAPIDS   CLOUDY    29  24  82 NW17G28   29.75R WCI  17
6HR MIN TEMP:  29; 6HR MAX TEMP:  31; 6HR PCP: TRACE;

KALAMAZOO      FRZ RAIN  31  27  85 N20       29.74R FOG     WCI  19
6HR MIN TEMP:  30; 6HR MAX TEMP:  32; 6HR PCP:  0.10;

MARSHALL       CLOUDY    30  28  91 NW10G20   29.70R WCI  21
6HR MIN TEMP:  28; 6HR MAX TEMP:  31; 6HR PCP:  0.09;

MOUNT PLEASANT FLURRIES  28  22  79 NW12G17   29.70S WCI  18
6HR MIN TEMP:  26; 6HR MAX TEMP:  29;

MUSKEGON       LGT SNOW  27  20  75 N17G37    29.83R WCI  14
6HR MIN TEMP:  27; 6HR MAX TEMP:  33; 6HR PCP:  0.01;

STURGIS        CLOUDY    32  29  91 N15G26    29.72R FOG     WCI  21
6HR MIN TEMP:  29; 6HR MAX TEMP:  32;

$$
MIZ016>042-120700-
NORTHERN LOWER MICHIGAN

CITY           SKY/WX    TMP DP  RH WIND       PRES   REMARKS
ALPENA         CLOUDY    25  20  81 NW13G21   29.64S WCI  14
6HR MIN TEMP:  22; 6HR MAX TEMP:  25; 6HR PCP:  0.03;

BEAVER ISLAND  LGT SNOW  19  11  68 NW18G35   29.80R WCI   4
6HR MIN TEMP:  19; 6HR MAX TEMP:  29;

BELLAIRE       LGT SNOW  23  19  87 N9G22     29.77R WCI  13
6HR MIN TEMP:  22; 6HR MAX TEMP:  29;

CADILLAC       LGT SNOW  21  18  88 NW16G22   29.71S WCI   7
CHARLEVOIX     LGT SNOW  22  13  67 NW26G35   29.80R WCI   5
6HR MIN TEMP:  22; 6HR MAX TEMP:  31;

GAYLORD        LGT SNOW  19  11  70 NW13G22   29.68R WCI   6
6HR MIN TEMP:  19; 6HR MAX TEMP:  24; 6HR PCP:  0.02;

HOUGHTON LAKE  LGT SNOW  23  18  81 NW16G23   29.69R WCI  10
6HR MIN TEMP:  20; 6HR MAX TEMP:  26; 6HR PCP:  0.02;

MANISTEE       LGT SNOW  24  14  65 N18G37    29.84R WCI  10
OSCODA         CLOUDY    25  20  81 NW10G20   29.63F WCI  15
6HR MIN TEMP:  25; 6HR MAX TEMP:  26;

PELLSTON       MIX PCPN  20  13  74 NW22G35   29.74R WCI   3
6HR MIN TEMP:  20; 6HR MAX TEMP:  26; 6HR PCP:  0.01;

TRAVERSE CITY  CLOUDY    24  14  65 NW28G38   29.78R HAZE    WCI   7
6HR MIN TEMP:  24; 6HR MAX TEMP:  30; 6HR PCP: TRACE;

LUDINGTON      CLOUDY    24  12  59 N21G35    29.84R WCI  10
6HR MIN TEMP:  24; 6HR MAX TEMP:  31;

$$
MIZ007>008-015-120700-
EASTERN UPPER MICHIGAN

CITY           SKY/WX    TMP DP  RH WIND       PRES   REMARKS
KINROSS        LGT SNOW  18  14  86 NW26G37   29.65R FOG     WCI  -1
6HR MIN TEMP:  18; 6HR MAX TEMP:  21;

MACKINAC ISLAN CLOUDY    20  13  72 NW21G35   29.69R WCI   4
6HR MIN TEMP:  20; 6HR MAX TEMP:  26;

NEWBERRY       CLOUDY    13   8  78 NW17G31   29.77R HAZE    WCI  -3
6HR MIN TEMP:  13; 6HR MAX TEMP:  23;

S. S. MARIE    LGT SNOW  18  11  74 N13G29    29.68R WCI   5
6HR MIN TEMP:  18; 6HR MAX TEMP:  25; 6HR PCP:  0.07;

$$
MIZ004>006-011>014-085-120700-
CENTRAL UPPER MICHIGAN

CITY           SKY/WX    TMP DP  RH WIND       PRES   REMARKS
MANISTIQUE     PTCLDY    15   4  60 N20G25    29.83R WCI  -2
6HR MIN TEMP:  15; 6HR MAX TEMP:  25;

ESCANABA       MOCLDY    15   4  61 NW15G23   29.92R WCI   0
6HR MIN TEMP:  15; 6HR MAX TEMP:  25; 6HR PCP: TRACE;

MENOMINEE      PTCLDY    16   5  62 N14G23    29.97R WCI   2
6HR MIN TEMP:  16; 6HR MAX TEMP:  26; 6HR PCP: TRACE;

SAWYER-GWINN   LGT SNOW  11   7  83 NW16G28   29.90R WCI  -5
6HR MIN TEMP:  11; 6HR MAX TEMP:  20;

$$
MIZ001>003-009>011-084-120700-
WESTERN UPPER MICHIGAN

CITY           SKY/WX    TMP DP  RH WIND       PRES   REMARKS
IRON MOUNTAIN  LGT SNOW  14   5  67 NW17      29.94R WCI  -3
6HR MIN TEMP:  14; 6HR MAX TEMP:  23; 6HR PCP: TRACE;

HOUGHTON       LGT SNOW  10   0  63 N17G25    29.99R WCI  -8
6HR MIN TEMP:  10; 6HR MAX TEMP:  16; 6HR PCP:  0.01;

COPPER HARBOR    N/A     16  10  77 NE26G35   30.00R WCI  -3
6HR MIN TEMP:  16; 6HR MAX TEMP:  21; 6HR PCP:  0.01;

IRONWOOD       FLURRIES  13   6  74 NW14      30.06R WCI  -2
6HR MIN TEMP:  13; 6HR MAX TEMP:  19;

$$

ABBREVIATIONS USED IN REMARKS
   TC - TEMPERATURE IN CELSIUS
  WCI - WIND CHILL INDEX
   HX - HEAT INDEX
  VSB - VISIBILITY





USA.gov is the U.S. government's official web portal to all federal, state and local government web resources and services.